[Date Prev][Date Next][Thread Prev][Thread Next] - [Date Index][Thread Index][Author Index]

2 Line ISS Keps 2-29



ISS 
1 25544U 98067A   04060.18074081  .00021989  00000-0  20179-3 0  2836
2 25544  51.6297 160.7934 0005977 222.7921 216.7387 15.67640983301215

----
Via the sarex mailing list at AMSAT.ORG courtesy of AMSAT-NA.
To unsubscribe, send "unsubscribe sarex" to Majordomo@amsat.org



AMSAT Top AMSAT Home